STARLINK-33572 (62767 NORAD) Tracking and Keplerian Element Data

This shows tracking and keplerian element data for the satellite.

Feedback or suggestion? Click here.




ElementValue
Catalog62767
NameSTARLINK-33572
Epoch Orbit334
Epoch Day35.25001157
Epoch Year2025
RAAN18.6825
Inclination53.1599
Eccentricity0.0001193
Argument of Perigee73.96
Mean Anonmoly200.1008
Mean Motion15.78669183
Decay Rate-0.01035424
L11 62767U 25015K 25035.25001157 -.01035424 00000+0 -64195-2 0 9994
L22 62767 53.1599 18.6825 0001193 73.9600 200.1008 15.78669183 3346



Live tracking and technical data element details for STARLINK-33572 (NORAD 62767). STARLINK-33572 can be tracked NOW for your location showing map with azimuth and elevation plus other details from your city location.







IsCatalogInMostPopularTable: catalog: 62767, numindb: 198
Update: records affected: 1



GetName: 62767 STARLINK-33572

Hit Count: updated at: Sat, 06 Dec 2025 19:30:56 GMT